EW0532 Weather Reports


time (UTC)temp
C
wind
direction
speed
KPH
gust
KPH
rain 1hr
cm
rain 24hr
cm
rain mn
cm
humidity
%
barometer
mb
20260506014003 23 144 1.6 24.1 0.00 0.00 0.00 42 1010.1
20260506013511 23 162 6.4 20.9 0.00 0.00 0.00 42 1010.1
20260506013004 23 175 4.8 17.7 0.00 0.00 0.00 41 1009.9
20260506012504 23 229 1.6 17.7 0.00 0.00 0.00 41 1010.0
20260506012006 24 173 4.8 19.3 0.00 0.00 0.00 41 1009.9
20260506011510 24 181 6.4 25.7 0.00 0.00 0.00 41 1009.8
20260506011007 24 143 3.2 25.7 0.00 0.00 0.00 40 1009.8
20260506010503 24 155 8.0 24.1 0.00 0.00 0.00 40 1009.8
20260506010018 24 186 4.8 14.5 0.00 0.00 0.00 40 1009.7
20260506005506 24 210 4.8 12.9 0.00 0.00 0.00 39 1009.7
20260506005009 25 202 3.2 19.3 0.00 0.00 0.00 38 1009.7
20260506004521 25 203 8.0 20.9 0.00 0.00 0.00 38 1009.7
20260506004011 25 173 4.8 20.9 0.00 0.00 0.00 37 1009.5
20260506003511 25 179 6.4 20.9 0.00 0.00 0.00 37 1009.5
20260506003013 25 144 6.4 24.1 0.00 0.00 0.00 36 1009.4
20260506002507 25 194 3.2 24.1 0.00 0.00 0.00 35 1009.3
20260506002013 25 160 8.0 17.7 0.00 0.00 0.00 35 1009.1
20260506001508 25 180 3.2 14.5 0.00 0.00 0.00 35 1009.1
20260506001004 25 208 1.6 19.3 0.00 0.00 0.00 34 1009.1
20260506000504 25 154 4.8 19.3 0.00 0.00 0.00 34 1009.0
20260506000014 25 186 6.4 24.1 0.00 0.00 0.00 34 1009.0
20260505235504 25 124 4.8 24.1 0.00 0.00 0.00 33 1009.0
20260505235005 25 178 3.2 16.1 0.00 0.00 0.00 33 1009.1
20260505234520 25 208 3.2 12.9 0.00 0.00 0.00 33 1009.0
20260505234007 25 182 0.0 16.1 0.00 0.00 0.00 33 1009.0
20260505233508 25 203 6.4 20.9 0.00 0.00 0.00 32 1009.0
20260505233019 25 185 0.0 20.9 0.00 0.00 0.00 32 1009.0
20260505232509 26 194 6.4 19.3 0.00 0.00 0.00 32 1009.0
20260505232003 26 180 4.8 14.5 0.00 0.00 0.00 31 1008.9
20260505231524 26 169 3.2 17.7 0.00 0.00 0.00 32 1008.8
20260505231009 26 323 3.2 17.7 0.00 0.00 0.00 31 1008.7
20260505230511 26 184 4.8 14.5 0.00 0.00 0.00 30 1008.6
20260505230021 26 161 3.2 30.6 0.00 0.00 0.00 30 1008.6
20260505225507 26 219 8.0 30.6 0.00 0.00 0.00 30 1008.5
20260505225009 26 171 11.3 30.6 0.00 0.00 0.00 29 1008.8
20260505224515 26 184 4.8 22.5 0.00 0.00 0.00 29 1008.7
20260505224007 26 190 6.4 25.7 0.00 0.00 0.00 29 1008.7
20260505223514 27 178 9.7 25.7 0.00 0.00 0.00 29 1008.7
20260505223021 27 205 1.6 16.1 0.00 0.00 0.00 29 1008.5
20260505222506 27 207 6.4 25.7 0.00 0.00 0.00 29 1008.4
20260505222013 27 183 8.0 25.7 0.00 0.00 0.00 28 1008.6
20260505221524 27 300 6.4 24.1 0.00 0.00 0.00 28 1008.4
20260505221006 27 188 9.7 20.9 0.00 0.00 0.00 28 1008.6
20260505220507 27 178 6.4 19.3 0.00 0.00 0.00 30 1008.2
20260505220023 27 188 4.8 22.5 0.00 0.00 0.00 30 1008.3
20260505215510 27 166 8.0 32.2 0.00 0.00 0.00 30 1008.4
20260505215006 27 162 11.3 32.2 0.00 0.00 0.00 30 1008.3
20260505214513 27 178 9.7 24.1 0.00 0.00 0.00 29 1008.3
20260505214008 27 209 9.7 24.1 0.00 0.00 0.00 29 1008.2
20260505213506 27 192 6.4 20.9 0.00 0.00 0.00 29 1008.0
20260505213018 27 183 8.0 29.0 0.00 0.00 0.00 29 1007.9
20260505212507 27 232 9.7 30.6 0.00 0.00 0.00 30 1008.0
20260505212011 28 190 11.3 30.6 0.00 0.00 0.00 30 1007.8
20260505211514 28 187 3.2 20.9 0.00 0.00 0.00 32 1007.9
20260505211007 27 351 6.4 25.7 0.00 0.00 0.00 31 1007.9
20260505210511 28 188 6.4 25.7 0.00 0.00 0.00 30 1007.9
20260505210029 28 135 3.2 30.6 0.00 0.00 0.00 31 1007.9
20260505205512 28 189 3.2 30.6 0.00 0.00 0.00 29 1007.8
20260505205014 28 215 8.0 27.4 0.00 0.00 0.00 29 1008.2
20260505204509 28 163 11.3 27.4 0.00 0.00 0.00 28 1008.0
20260505204003 28 199 6.4 29.0 0.00 0.00 0.00 27 1008.1
20260505203502 28 213 8.0 29.0 0.00 0.00 0.00 30 1008.1
20260505203005 28 145 6.4 35.4 0.00 0.00 0.00 30 1008.1
20260505202508 28 170 12.9 37.0 0.00 0.00 0.00 29 1007.9
20260505202011 28 315 6.4 37.0 0.00 0.00 0.00 31 1008.0
20260505201504 28 125 9.7 37.0 0.00 0.00 0.00 29 1008.1
20260505201005 28 316 9.7 35.4 0.00 0.00 0.00 28 1008.2
20260505200504 28 52 9.7 27.4 0.00 0.00 0.00 29 1008.1
20260505200002 28 53 8.0 41.8 0.00 0.00 0.00 31 1008.0
20260505195501 28 153 3.2 41.8 0.00 0.00 0.00 32 1008.0
20260505195002 28 186 11.3 35.4 0.00 0.00 0.00 31 1008.0
20260505194513 28 209 8.0 35.4 0.00 0.00 0.00 32 1007.9
20260505194006 28 175 9.7 35.4 0.00 0.00 0.00 32 1008.1
20260505193503 28 191 11.3 37.0 0.00 0.00 0.00 31 1008.3
20260505193013 28 180 14.5 37.0 0.00 0.00 0.00 31 1008.1
20260505192506 28 163 8.0 25.7 0.00 0.00 0.00 29 1008.3
20260505192005 28 206 8.0 37.0 0.00 0.00 0.00 31 1008.3
20260505191511 28 290 11.3 37.0 0.00 0.00 0.00 30 1008.4
20260505191012 28 200 12.9 30.6 0.00 0.00 0.00 31 1008.6
20260505190503 27 5 9.7 33.8 0.00 0.00 0.00 34 1008.6
20260505190006 27 194 16.1 33.8 0.00 0.00 0.00 32 1008.6
20260505185503 28 213 9.7 25.7 0.00 0.00 0.00 31 1008.7
20260505185005 28 148 14.5 33.8 0.00 0.00 0.00 31 1008.9
20260505184506 28 171 8.0 33.8 0.00 0.00 0.00 33 1008.9
20260505184007 27 214 12.9 32.2 0.00 0.00 0.00 35 1009.2
20260505183506 28 135 12.9 30.6 0.00 0.00 0.00 33 1009.0
20260505183005 27 196 8.0 25.7 0.00 0.00 0.00 34 1009.0
20260505182503 27 188 6.4 35.4 0.00 0.00 0.00 34 1009.0
20260505182009 27 169 14.5 35.4 0.00 0.00 0.00 34 1009.0
20260505181515 27 202 8.0 29.0 0.00 0.00 0.00 34 1008.9
20260505181004 27 164 14.5 32.2 0.00 0.00 0.00 33 1009.1
20260505180508 27 189 16.1 37.0 0.00 0.00 0.00 33 1009.3
20260505180021 27 188 9.7 37.0 0.00 0.00 0.00 34 1009.2
20260505175504 27 204 4.8 24.1 0.00 0.00 0.00 37 1009.2
20260505175004 27 17 9.7 24.1 0.00 0.00 0.00 38 1009.4
20260505174508 27 210 8.0 24.1 0.00 0.00 0.00 37 1009.4
20260505174004 27 192 9.7 25.7 0.00 0.00 0.00 37 1009.5
20260505173505 27 160 9.7 27.4 0.00 0.00 0.00 38 1009.5
20260505173009 27 157 9.7 27.4 0.00 0.00 0.00 39 1009.6
20260505172506 27 168 4.8 19.3 0.00 0.00 0.00 40 1009.6
20260505172012 27 63 8.0 20.9 0.00 0.00 0.00 41 1009.7
20260505171515 27 290 4.8 20.9 0.00 0.00 0.00 40 1009.7
20260505171007 26 150 4.8 16.1 0.00 0.00 0.00 43 1010.0
20260505170505 26 155 4.8 17.7 0.00 0.00 0.00 41 1009.9
20260505170013 26 202 6.4 20.9 0.00 0.00 0.00 40 1010.0
20260505165504 26 180 4.8 20.9 0.00 0.00 0.00 42 1010.0
20260505165013 26 145 4.8 16.1 0.00 0.00 0.00 44 1010.0
20260505164525 26 117 3.2 16.1 0.00 0.00 0.00 43 1010.0
20260505164004 26 213 8.0 16.1 0.00 0.00 0.00 43 1010.2
20260505163504 26 288 4.8 19.3 0.00 0.00 0.00 45 1010.3
20260505163010 26 187 4.8 19.3 0.00 0.00 0.00 43 1010.2
20260505162504 25 155 3.2 14.5 0.00 0.00 0.00 44 1010.3
20260505162006 25 167 4.8 11.3 0.00 0.00 0.00 43 1010.4
20260505161510 25 157 3.2 19.3 0.00 0.00 0.00 44 1010.4
20260505161007 25 232 8.0 19.3 0.00 0.00 0.00 44 1010.6
20260505160502 25 144 4.8 14.5 0.00 0.00 0.00 45 1010.6
20260505153012 24 139 6.4 17.7 0.00 0.00 0.00 46 1011.0
20260505152508 23 120 6.4 17.7 0.00 0.00 0.00 48 1011.0
20260505152008 23 173 1.6 11.3 0.00 0.00 0.00 47 1011.1
20260505151507 23 315 1.6 16.1 0.00 0.00 0.00 49 1011.0
20260505151003 23 149 1.6 16.1 0.00 0.00 0.00 48 1010.9
20260505150504 23 154 3.2 16.1 0.00 0.00 0.00 49 1011.0
20260505140506 21 202 4.8 16.1 0.00 0.00 0.00 55 1011.5
20260505125007 17 195 4.8 14.5 0.00 0.00 0.00 63 1011.1
20260505124515 17 166 4.8 12.9 0.00 0.00 0.00 63 1011.0
20260505124009 17 160 1.6 12.9 0.00 0.00 0.00 66 1011.0
20260505123508 17 157 6.4 12.9 0.00 0.00 0.00 65 1011.0
20260505123016 16 206 1.6 14.5 0.00 0.00 0.00 68 1011.0
20260505122508 16 327 4.8 14.5 0.00 0.00 0.00 68 1011.0
20260505122016 16 209 4.8 16.1 0.00 0.00 0.00 70 1011.1
20260505121515 16 196 3.2 16.1 0.00 0.00 0.00 72 1011.2
20260505121010 15 199 1.6 12.9 0.00 0.00 0.00 73 1011.4
20260505120513 15 193 3.2 11.3 0.00 0.00 0.00 73 1011.4
20260505120026 15 184 3.2 9.7 0.00 0.00 0.00 74 1011.4
20260505115507 15 203 1.6 9.7 0.00 0.00 0.00 75 1011.3
20260505115011 14 172 0.0 9.7 0.00 0.00 0.00 76 1011.3
20260505114508 14 171 1.6 9.7 0.00 0.00 0.00 76 1011.2
20260505114008 14 146 0.0 9.7 0.00 0.00 0.00 75 1011.3
20260505113502 14 151 1.6 8.0 0.00 0.00 0.00 76 1011.2
20260505113007 14 151 0.0 8.0 0.00 0.00 0.00 75 1011.0
20260505112507 14 165 0.0 8.0 0.00 0.00 0.00 75 1011.0
20260505112002 14 165 3.2 8.0 0.00 0.00 0.00 76 1011.0
20260505111507 14 206 0.0 6.4 0.00 0.00 0.00 74 1010.8
20260505111004 14 206 0.0 12.9 0.00 0.00 0.00 73 1010.8
20260505110503 15 206 1.6 12.9 0.00 0.00 0.00 71 1011.2
20260505102004 13 169 1.6 6.4 0.00 0.00 0.00 70 1011.2
20260505101511 13 169 0.0 6.4 0.00 0.00 0.00 70 1011.0
20260505101007 13 167 0.0 8.0 0.00 0.00 0.00 70 1010.9
20260505100504 13 167 0.0 8.0 0.00 0.00 0.00 70 1010.8
20260505100009 13 173 1.6 8.0 0.00 0.00 0.00 70 1010.9
20260505095502 13 121 1.6 14.5 0.00 0.00 0.00 70 1010.8
20260505095004 13 170 4.8 14.5 0.00 0.00 0.00 70 1010.8
20260505094507 13 185 0.0 6.4 0.00 0.00 0.00 71 1010.7
20260505094006 13 183 0.0 4.8 0.00 0.00 0.00 71 1010.6
20260505093505 13 182 1.6 4.8 0.00 0.00 0.00 71 1010.5
20260505093012 13 188 0.0 6.4 0.00 0.00 0.00 71 1010.5
20260505092503 13 185 0.0 6.4 0.00 0.00 0.00 71 1010.4
20260505092010 13 188 0.0 6.4 0.00 0.00 0.00 71 1010.5
20260505091517 13 180 3.2 6.4 0.00 0.00 0.00 71 1010.4
20260505091003 13 190 0.0 6.4 0.00 0.00 0.00 71 1010.4
20260505090508 13 187 1.6 6.4 0.00 0.00 0.00 70 1010.4
20260505090016 13 184 1.6 8.0 0.00 0.00 0.00 70 1010.4
20260505085507 13 185 1.6 8.0 0.00 0.00 0.00 70 1010.3
20260505085003 13 188 3.2 12.9 0.00 0.00 0.00 70 1010.3
20260505084004 13 200 3.2 8.0 0.00 0.00 0.00 69 1010.4
20260505083502 13 189 0.0 8.0 0.00 0.00 0.00 69 1010.4
20260505083013 14 189 3.2 8.0 0.00 0.00 0.00 69 1010.4
20260505082507 14 175 0.0 9.7 0.00 0.00 0.00 68 1010.4
20260505082006 14 173 3.2 9.7 0.00 0.00 0.00 68 1010.4
20260505081509 14 184 1.6 8.0 0.00 0.00 0.00 68 1010.4
20260505081008 14 199 1.6 8.0 0.00 0.00 0.00 68 1010.4
20260505080507 14 167 3.2 9.7 0.00 0.00 0.00 68 1010.4
20260505080021 14 184 1.6 9.7 0.00 0.00 0.00 68 1010.5
20260505075504 14 143 0.0 6.4 0.00 0.00 0.00 68 1010.4
20260505075009 14 140 0.0 8.0 0.00 0.00 0.00 68 1010.5
20260505074521 14 171 1.6 9.7 0.00 0.00 0.00 68 1010.4
20260505074004 14 148 1.6 8.0 0.00 0.00 0.00 68 1010.4
20260505073506 14 173 0.0 8.0 0.00 0.00 0.00 67 1010.3
20260505073010 14 145 0.0 8.0 0.00 0.00 0.00 67 1010.3
20260505072505 14 144 0.0 9.7 0.00 0.00 0.00 67 1010.3
20260505072003 14 142 3.2 9.7 0.00 0.00 0.00 67 1010.3
20260505071523 14 171 0.0 6.4 0.00 0.00 0.00 67 1010.3
20260505071006 14 171 0.0 9.7 0.00 0.00 0.00 66 1010.3
20260505070503 14 171 1.6 9.7 0.00 0.00 0.00 66 1010.2
20260505070016 14 178 0.0 8.0 0.00 0.00 0.00 66 1010.3
20260505065507 14 177 0.0 6.4 0.00 0.00 0.00 66 1010.3
20260505065009 14 182 0.0 6.4 0.00 0.00 0.00 66 1010.3
20260505064519 14 144 0.0 8.0 0.00 0.00 0.00 66 1010.3
20260505064007 14 127 0.0 8.0 0.00 0.00 0.00 66 1010.2
20260505063506 14 144 1.6 6.4 0.00 0.00 0.00 66 1010.3
20260505063013 14 146 0.0 1.6 0.00 0.00 0.00 65 1010.4
20260505062507 14 146 0.0 3.2 0.00 0.00 0.00 64 1010.4
20260505062010 14 146 0.0 3.2 0.00 0.00 0.00 64 1010.5
20260505061511 15 146 0.0 4.8 0.00 0.00 0.00 64 1010.5
20260505061003 15 146 0.0 4.8 0.00 0.00 0.00 64 1010.5
20260505060509 14 145 0.0 4.8 0.00 0.00 0.00 64 1010.6
20260505060014 14 145 0.0 8.0 0.00 0.00 0.00 64 1010.6
20260505055508 14 144 1.6 8.0 0.00 0.00 0.00 65 1010.6
20260505055007 13 138 0.0 1.6 0.00 0.00 0.00 65 1010.6
20260505054527 13 138 0.0 0.0 0.00 0.00 0.00 64 1010.6
20260505054013 14 138 0.0 0.0 0.00 0.00 0.00 64 1010.7
20260505053505 14 138 0.0 1.6 0.00 0.00 0.00 63 1010.7
20260505053024 14 138 0.0 1.6 0.00 0.00 0.00 63 1010.7
20260505052513 14 138 0.0 1.6 0.00 0.00 0.00 62 1010.8
20260505052015 14 138 0.0 1.6 0.00 0.00 0.00 61 1010.8
20260505051523 14 138 0.0 1.6 0.00 0.00 0.00 61 1010.9
20260505051011 14 138 0.0 0.0 0.00 0.00 0.00 60 1011.0
20260505050516 15 138 0.0 0.0 0.00 0.00 0.00 60 1011.0
20260505041504 16 150 0.0 8.0 0.00 0.00 0.00 54 1011.0
20260505041004 16 153 0.0 6.4 0.00 0.00 0.00 54 1011.1
20260505040504 16 155 1.6 6.4 0.00 0.00 0.00 54 1011.0
20260505040006 16 161 0.0 8.0 0.00 0.00 0.00 54 1011.1
20260505035505 16 161 0.0 8.0 0.00 0.00 0.00 54 1011.1
20260505035003 16 153 0.0 11.3 0.00 0.00 0.00 53 1011.1
20260505034515 16 163 0.0 11.3 0.00 0.00 0.00 53 1011.1
20260505034003 16 145 1.6 8.0 0.00 0.00 0.00 52 1011.1
20260505033504 16 151 0.0 9.7 0.00 0.00 0.00 52 1011.2
20260505033005 16 160 3.2 9.7 0.00 0.00 0.00 52 1011.2
20260505032503 16 155 1.6 8.0 0.00 0.00 0.00 52 1011.2
20260505032006 16 155 3.2 12.9 0.00 0.00 0.00 51 1011.2
20260505031502 16 159 1.6 12.9 0.00 0.00 0.00 51 1011.3
20260505031005 16 150 1.6 9.7 0.00 0.00 0.00 50 1011.3
20260505030503 17 159 1.6 11.3 0.00 0.00 0.00 50 1011.3
20260505030021 17 164 1.6 11.3 0.00 0.00 0.00 50 1011.4
20260505025507 17 271 0.0 9.7 0.00 0.00 0.00 49 1011.4
20260505025004 17 200 1.6 9.7 0.00 0.00 0.00 49 1011.3
20260505024507 17 153 0.0 8.0 0.00 0.00 0.00 48 1011.3
20260505024006 17 137 1.6 9.7 0.00 0.00 0.00 48 1011.3
20260505023505 17 109 1.6 9.7 0.00 0.00 0.00 47 1011.2
20260505023003 17 162 1.6 8.0 0.00 0.00 0.00 46 1011.3
20260505022504 17 157 0.0 3.2 0.00 0.00 0.00 46 1011.3
20260505022008 17 157 0.0 8.0 0.00 0.00 0.00 45 1011.3
20260505021504 17 157 0.0 8.0 0.00 0.00 0.00 44 1011.3
20260505021003 17 150 0.0 8.0 0.00 0.00 0.00 44 1011.4
20260505020503 17 152 1.6 8.0 0.00 0.00 0.00 44 1011.3
20260505020004 18 159 1.6 8.0 0.00 0.00 0.00 43 1011.3
20260505015503 18 142 0.0 4.8 0.00 0.00 0.00 43 1011.2
20260505015006 18 144 0.0 4.8 0.00 0.00 0.00 43 1011.2
20260505014508 18 192 0.0 8.0 0.00 0.00 0.00 42 1011.2